Regional Weather Roundup
Issued by NWS

Home | Current Version | Previous Version | Graphics & Text | Print | Product List | Glossary On
Versions: 1 2 3 4 5 6 7 8 9 10 11 12 13 14 15 16 17 18 19 20 21 22 23 24 25 26 27 28 29 30 31 32 33 34 35 36 37 38 39 40 41 42 43 44 45 46 47 48 49 50
000
ASUS43 KFSD 041510
RWRSD

WEATHER ROUNDUP FOR SOUTH DAKOTA
NATIONAL WEATHER SERVICE SIOUX FALLS SD
1000 AM CDT SAT JUL 04 2015

NOTE: "FAIR" INDICATES FEW OR NO CLOUDS BELOW 12,000 FEET WITH NO
SIGNIFICANT WEATHER AND/OR OBSTRUCTIONS TO VISIBILITY.


SDZ001>005-009-010-012>017-041600-
NORTHWEST AND NORTH CENTRAL SOUTH DAKOTA

CITY           SKY/WX    TMP DP  RH WIND       PRES   REMARKS
BUFFALO          N/A     73  63  70 CALM      29.79S
FAITH            N/A     74  62  66 S17       29.82F
MOBRIDGE       SUNNY     75  68  78 SE14      29.80F
$$

SDZ012>016-024>037-041>051-057-063-072>074-041600-
SOUTHWEST AND SOUTH CENTRAL SOUTH DAKOTA

CITY           SKY/WX    TMP DP  RH WIND       PRES   REMARKS
RAPID CTY ARPT SUNNY     76  64  66 S10       29.85F
PIERRE         SUNNY     75  67  76 S9        29.84F
CUSTER         SUNNY     74  55  51 W7        30.01S
ELLSWORTH AFB  SUNNY     76  64  66 S13       29.84S
PHILIP         MOSUNNY   77  67  71 SE5       29.83F
PINE RIDGE     SUNNY     75  63  66 SW15      29.90S
SPEARFISH      FAIR      75  63  64 NE3       29.90S
WINNER         FAIR      77  60  55 S14       29.89S
$$

SDZ004>011-016>023-039-040-041600-
NORTHEAST SOUTH DAKOTA

CITY           SKY/WX    TMP DP  RH WIND       PRES   REMARKS
ABERDEEN       MOSUNNY   72  66  81 S10       29.88F
WATERTOWN      SUNNY     72  65  78 S8        29.93F
BROOKINGS      SUNNY     72  64  78 SW7       29.97S
SISSETON         N/A     77  65  66 SW8       29.89F
$$

SDZ017-020-022-023-036>040-048>070-041600-
SOUTHEAST SOUTH DAKOTA

CITY           SKY/WX    TMP DP  RH WIND       PRES   REMARKS
SIOUX FALLS    SUNNY     73  64  73 SW7       29.96F
HURON          MOSUNNY   71  66  84 SE8       29.89F
CHAMBERLAIN    MOSUNNY   73  65  77 S7        29.89S
MITCHELL       MOSUNNY   73  66  78 S10       29.92F
YANKTON        MOSUNNY   73  64  73 SW7       29.94F
$$

ABBREVIATIONS USED IN REMARKS
   TC - TEMPERATURE IN CELSIUS
  WCI - WIND CHILL INDEX
   HX - HEAT INDEX
  VSB - VISIBILITY



USA.gov is the U.S. government's official web portal to all federal, state and local government web resources and services.